User: anonymous   Login
Location: ?????????
(38.0736°N, 23.2119°E)
Time: 11:31:14
(UTC+00:00)
Language:

Cosmos 304 Rocket - Orbit

View from above orbital plane
View from above orbital plane
View from above satellite
View from above satellite

Ground track
Ground track

The orbit data is extracted from the following two-line orbital elements,

1 04139U 69091B   24171.64081589  .00000664  00000-0  13062-3 0  9999
2 04139  74.0312 234.7879 0005145  18.1194 342.0156 14.64682358903117
Epoch (UTC): 19 June 2024 15:22:46
Eccentricity: 0.0005145
inclination: 74.0312°
perigee height: 674 km
apogee height: 682 km
right ascension of ascending node: 234.7879°
argument of perigee: 18.1194°
revolutions per day: 14.64682358
mean anomaly at epoch: 342.0156°
orbit number at epoch: 90311

The dashed part of the orbit path shows where the satellite is in the earth's shadow,  

DLR